Find Starlink 11665

NORAD ID: 63549 Int'l Des: 2025-075 Owner: SPXS Country: US Constellation: starlink operational
LEOCIRCULAR

实时位置

正在加载3D地球...

关于 Starlink 11665

正在加载描述...

即将过境

Passes for default location (London). Set your location on the main map for personalized predictions.

高度历史

Loading altitude history...

两行轨道根数

1 63549U 25075B 26123.46254522 .00193026 00000-0 14671-2 0 9992
2 63549 42.9978 183.5881 0002035 253.1441 106.9203 15.70936463 61868
Epoch: May 3, 2026 • Age: 19 hours

当前状态

高度 358.2 km
速度 7.70 km/s
星下点 35.66°N, 78.14°W
发射日期 Apr 13, 2025
运行时间 1 years
类型 internet

技术详情

分类 Payload
质量 960.00 kg
干质量 910.00 kg
总质量 960.00 kg
长度 0.30 m
直径 4.10 m
跨度 29.00 m
形状 Box + pan
制造商 SPXS
平台类型 Starlink V2MD
阶段状态 In Orbit
所有者/国家 SPXS/US

Most Searched